Gulkana, AK

9:20 AM AKDT on July 20, 2017 (GMT -0800)
Gulkana

Weather History for PAGK - April, 2013

Change the Weather History Date:

Friday, April 26, 2013

  Actual Average Record
Temperature  
Mean Temperature 24 °F -  
Max Temperature 34 °F 48 °F 66 °F (2003)
Min Temperature 14 °F 26 °F 7 °F (1955)
Degree Days  
Heating Degree Days 42    
Moisture  
Dew Point 3 °F    
Average Humidity 38    
Maximum Humidity 56    
Minimum Humidity 18    
Precipitation  
Precipitation 0.00 in - - ()
Sea Level Pressure  
Sea Level Pressure 29.65 in    
Wind  
Wind Speed 12 mph (NNW)    
Max Wind Speed 17 mph    
Max Gust Speed 29 mph    
Visibility 10 miles    
Events      
Averages and records for this station are not official NWS values.
T = Trace of Precipitation, MM = Missing Value Source: NWS Daily Summary

Daily Weather History Graph

Daily Weather History Graph

Search for Another Location

Airport or City:

Trip Planner

Search our weather history database for the weather conditions in past years. The results will help you decide how hot, cold, wet, or windy it might be!

Date:

Astronomy

Apr. 26, 2013 Rise Set
Actual Time 5:41 AM AKDT 9:39 PM AKDT
Civil Twilight 4:44 AM AKDT 10:36 PM AKDT
Nautical Twilight 3:13 AM AKDT 12:11 AM AKDT
Astronomical Twilight Sun does not set Sun does not set
Moon 11:44 PM AKDT (4/26) 5:57 AM AKDT (4/26)
Length of Visible Light 17h 52m
Length of Day
15h 58m
Full, 99% of the Moon is Illuminated
Apr 26
Full
May 2
Last Quarter
May 9
New
May 17
First Quarter
May 24
Full

Hourly Weather History & Observations

Time (AKDT) Temp. Windchill Dew Point Humidity Pressure Visibility Wind Dir Wind Speed Gust Speed Precip Events Conditions
12:53 AM 21.0 °F 7.1 °F 1.9 °F 44% 29.84 in 10.0 mi North 16.1 mph 26.5 mph N/A   Clear
1:53 AM 21.0 °F 6.6 °F 1.0 °F 42% 29.85 in 10.0 mi North 17.3 mph 28.8 mph N/A   Clear
2:53 AM 17.1 °F 3.6 °F 1.9 °F 52% 29.85 in 10.0 mi NW 12.7 mph - N/A   Clear
3:53 AM 16.0 °F 2.9 °F 1.0 °F 52% 29.83 in 10.0 mi NW 11.5 mph - N/A   Clear
4:53 AM 16.0 °F 1.7 °F 1.0 °F 52% 29.81 in 10.0 mi NNW 13.8 mph 24.2 mph N/A   Clear
5:53 AM 14.0 °F 0.5 °F 1.0 °F 56% 29.80 in 10.0 mi NW 11.5 mph - N/A   Clear
6:53 AM 17.1 °F 5.8 °F -0.0 °F 47% 29.77 in 10.0 mi NW 9.2 mph - N/A   Clear
7:53 AM 19.0 °F 5.0 °F -0.0 °F 43% 29.75 in 10.0 mi North 15.0 mph 23.0 mph N/A   Partly Cloudy
8:53 AM 21.9 °F 10.4 °F 1.0 °F 40% 29.75 in 10.0 mi NNW 11.5 mph - N/A   Partly Cloudy
9:53 AM 24.1 °F 13.1 °F 1.0 °F 37% 29.72 in 10.0 mi NNW 11.5 mph 21.9 mph N/A   Clear
10:53 AM 27.0 °F 16.1 °F 3.0 °F 36% 29.70 in 10.0 mi NW 12.7 mph 19.6 mph N/A   Mostly Cloudy
11:53 AM 27.0 °F 18.0 °F 1.9 °F 34% 29.66 in 10.0 mi North 9.2 mph - N/A   Mostly Cloudy
12:53 PM 28.0 °F 18.6 °F 3.0 °F 34% 29.63 in 10.0 mi NW 10.4 mph 20.7 mph N/A   Mostly Cloudy
1:53 PM 30.9 °F 22.8 °F 3.9 °F 32% 29.60 in 10.0 mi NNW 9.2 mph 18.4 mph N/A   Mostly Cloudy
2:53 PM 32.0 °F 23.6 °F 3.9 °F 31% 29.57 in 10.0 mi NNE 10.4 mph 18.4 mph N/A   Mostly Cloudy
3:53 PM 32.0 °F 24.2 °F 5.0 °F 32% 29.56 in 10.0 mi North 9.2 mph - N/A   Mostly Cloudy
4:53 PM 33.1 °F 25.5 °F 3.9 °F 29% 29.54 in 10.0 mi NW 9.2 mph - N/A   Mostly Cloudy
5:53 PM 33.1 °F 24.9 °F 5.0 °F 31% 29.53 in 10.0 mi NNW 10.4 mph 17.3 mph N/A   Overcast
6:53 PM 30.9 °F 21.7 °F 5.0 °F 33% 29.53 in 10.0 mi NNE 11.5 mph - N/A   Overcast
7:53 PM 28.9 °F 21.1 °F 5.0 °F 36% 29.53 in 10.0 mi NNE 8.1 mph - N/A   Overcast
8:53 PM 28.0 °F 19.3 °F 3.9 °F 36% 29.53 in 10.0 mi NNE 9.2 mph - N/A   Overcast
9:27 PM 26.1 °F 16.8 °F 5.0 °F 41% 29.43 in 10.0 mi NNW 9.2 mph - N/A   Mostly Cloudy
9:28 PM 26.1 °F 16.8 °F 5.0 °F 41% 29.43 in 10.0 mi NNW 9.2 mph - N/A   Mostly Cloudy
9:53 PM 26.1 °F 17.6 °F 3.9 °F 39% 29.53 in 10.0 mi NNW 8.1 mph - N/A   Scattered Clouds
10:53 PM 24.1 °F 14.4 °F 3.9 °F 42% 29.54 in 10.0 mi NNW 9.2 mph - N/A   Clear
11:53 PM 24.1 °F 14.4 °F 3.9 °F 42% 29.55 in 10.0 mi NNW 9.2 mph - N/A   Clear